AD8BW Weather Reports


time (UTC)temp
C
wind
direction
speed
KPH
gust
KPH
rain 1hr
cm
rain 24hr
cm
rain mn
cm
humidity
%
barometer
mb
20260905001722 23 329 0.0 0.0 0.00 0.20 0.20 87 1014.5
20260905000722 23 329 0.0 0.0 0.00 0.20 0.20 86 1014.3
20260904235719 24 329 0.0 0.0 0.00 0.20 0.20 87 1014.3
20260904234719 24 329 0.0 0.0 0.00 0.20 0.20 86 1014.3
20260904233729 24 329 0.0 0.0 0.00 0.20 0.20 86 1014.3
20260904232721 24 329 0.0 0.0 0.00 0.20 0.20 86 1014.1
20260904231716 24 329 0.0 0.0 0.00 0.20 0.20 86 1014.1
20260904230714 24 329 0.0 0.0 0.00 0.20 0.20 86 1013.9
20260904225716 24 329 0.0 0.0 0.00 0.20 0.20 86 1013.9
20260904224713 24 317 0.0 0.0 0.00 0.20 0.20 85 1013.7
20260904223713 24 317 0.0 0.0 0.00 0.20 0.20 85 1013.6
20260904222719 24 316 0.0 6.4 0.00 0.20 0.20 85 1013.7
20260904221716 24 344 0.0 6.4 0.00 0.20 0.20 85 1013.6
20260904220715 24 319 0.0 6.4 0.00 0.20 0.20 84 1013.6
20260904215712 24 310 0.0 8.0 0.00 0.20 0.20 84 1013.6
20260904214715 24 327 3.2 8.0 0.00 0.20 0.20 84 1013.5
20260904213714 24 325 0.0 6.4 0.00 0.20 0.20 84 1013.4
20260904212711 24 339 3.2 11.3 0.00 0.20 0.20 83 1013.2
20260904211710 24 287 3.2 8.0 0.00 0.20 0.20 83 1013.3
20260904210711 24 325 6.4 14.5 0.00 0.20 0.20 83 1013.3
20260904205714 24 320 6.4 14.5 0.00 0.20 0.20 83 1013.2
20260904204712 24 319 6.4 11.3 0.00 0.20 0.20 82 1013.1
20260904203716 25 336 3.2 8.0 0.00 0.20 0.20 83 1013.1
20260904202713 24 309 3.2 11.3 0.00 0.20 0.20 83 1013.0
20260904201709 24 326 3.2 11.3 0.00 0.20 0.20 83 1013.0
20260904200711 24 334 3.2 8.0 0.00 0.20 0.20 85 1013.3
20260904195714 24 170 3.2 8.0 0.00 0.20 0.20 85 1013.3
20260904194712 23 318 0.0 6.4 0.00 0.20 0.20 86 1013.5
20260904193712 23 182 0.0 8.0 0.00 0.20 0.20 86 1013.7
20260904192710 23 195 3.2 17.7 0.00 0.20 0.20 86 1013.8
20260904191709 23 229 3.2 11.3 0.00 0.20 0.20 88 1013.9
20260904190711 23 209 3.2 14.5 0.00 0.20 0.20 87 1013.9
20260904185711 23 205 0.0 8.0 0.00 0.20 0.20 88 1013.9
20260904184709 23 193 3.2 11.3 0.00 0.20 0.20 88 1014.1
20260904183710 23 164 3.2 11.3 0.00 0.20 0.20 88 1014.0
20260904182711 23 200 0.0 6.4 0.00 0.20 0.20 91 1014.0
20260904181710 23 174 3.2 11.3 0.00 0.20 0.20 93 1014.1
20260904180709 23 204 3.2 14.5 0.00 0.20 0.20 94 1014.3
20260904175706 23 215 3.2 17.7 0.00 0.20 0.20 95 1014.4
20260904174712 22 200 3.2 17.7 0.00 0.20 0.20 95 1014.4
20260904173704 22 191 3.2 11.3 0.00 0.20 0.20 95 1014.3
20260904172703 22 191 3.2 6.4 0.00 0.20 0.20 96 1014.4
20260904171704 22 191 3.2 11.3 0.00 0.20 0.20 96 1014.4
20260904170701 22 185 3.2 11.3 0.00 0.20 0.20 96 1014.5
20260904165701 21 179 0.0 8.0 0.00 0.20 0.20 97 1014.4
20260904164702 21 186 0.0 8.0 0.00 0.20 0.20 97 1014.6
20260904163700 21 174 0.0 0.0 0.00 0.20 0.20 97 1014.8
20260904162705 21 200 0.0 0.0 0.00 0.20 0.20 97 1014.8
20260904161708 20 200 0.0 3.2 0.00 0.20 0.20 97 1015.4
20260904160702 20 168 0.0 3.2 0.00 0.20 0.20 97 1015.5
20260904155656 20 168 0.0 3.2 0.00 0.20 0.20 97 1015.5
20260904154657 20 188 0.0 6.4 0.00 0.20 0.20 97 1016.0
20260904153657 20 183 0.0 6.4 0.03 0.20 0.20 97 1016.2
20260904152654 20 171 0.0 6.4 0.05 0.20 0.20 97 1016.3
20260904151657 20 196 3.2 8.0 0.08 0.20 0.20 97 1016.3
20260904150656 20 183 3.2 11.3 0.13 0.20 0.20 97 1016.4
20260904145657 20 175 3.2 11.3 0.13 0.20 0.20 97 1016.1
20260904144657 20 204 0.0 11.3 0.13 0.20 0.20 97 1016.4
20260904143654 20 177 3.2 8.0 0.13 0.18 0.18 97 1016.0
20260904142655 20 195 0.0 6.4 0.10 0.15 0.15 97 1016.0
20260904141653 20 194 3.2 14.5 0.08 0.13 0.13 97 1016.0
20260904140656 19 195 3.2 8.0 0.05 0.08 0.10 97 1016.0
20260904135652 19 182 3.2 14.5 0.08 0.08 0.08 97 1016.0
20260904134655 19 188 0.0 8.0 0.08 0.08 0.08 97 1016.5
20260904133653 19 203 0.0 0.0 0.05 0.05 0.05 97 1016.2
20260904132652 19 203 0.0 3.2 0.05 0.05 0.05 97 1016.4
20260904131652 19 338 0.0 0.0 0.05 0.05 0.05 97 1016.0
20260904130651 19 311 0.0 6.4 0.03 0.03 0.03 97 1016.5
20260904125650 19 191 0.0 8.0 0.00 0.00 0.00 97 1016.5
20260904124650 19 185 0.0 6.4 0.00 0.00 0.00 97 1016.2
20260904123649 19 185 3.2 11.3 0.00 0.00 0.00 97 1016.0
20260904122650 19 188 3.2 8.0 0.00 0.00 0.00 97 1015.9
20260904121647 19 196 3.2 11.3 0.00 0.00 0.00 97 1016.0
20260904120646 19 190 3.2 11.3 0.00 0.00 0.00 97 1015.7
20260904115643 19 184 0.0 3.2 0.00 0.00 0.00 97 1015.5
20260904114646 19 184 0.0 6.4 0.00 0.00 0.00 97 1015.6
20260904114143 19 184 0.0 6.4 0.00 0.00 0.00 97 1015.7
20260904112642 19 189 0.0 8.0 0.00 0.00 0.00 97 1015.6
20260904111640 19 167 3.2 11.3 0.00 0.00 0.00 97 1015.1
20260904110641 19 203 3.2 11.3 0.00 0.00 0.00 97 1015.4
20260904105642 19 161 0.0 0.0 0.00 0.00 0.00 97 1015.1
20260904104642 19 128 0.0 3.2 0.00 0.00 0.00 97 1014.9
20260904103639 19 85 0.0 6.4 0.00 0.00 0.00 97 1014.7
20260904102643 19 42 0.0 0.0 0.00 0.00 0.00 97 1014.6
20260904101649 19 42 0.0 0.0 0.00 0.00 0.00 97 1014.3
20260904100638 19 42 0.0 0.0 0.00 0.00 0.00 97 1014.2
20260904095636 19 42 0.0 0.0 0.00 0.00 0.00 96 1014.0
20260904094637 19 40 0.0 0.0 0.00 0.00 0.00 96 1014.0
20260904093636 19 40 0.0 0.0 0.00 0.00 0.00 96 1014.1
20260904092634 19 40 0.0 0.0 0.00 0.00 0.00 96 1014.4
20260904091635 19 40 0.0 0.0 0.00 0.00 0.00 96 1014.8
20260904090638 19 40 0.0 0.0 0.00 0.00 0.00 96 1015.1
20260904085637 19 40 0.0 0.0 0.00 0.00 0.00 96 1015.1
20260904084633 19 40 0.0 0.0 0.00 0.00 0.00 96 1015.0
20260904083629 18 40 0.0 0.0 0.00 0.00 0.00 96 1015.0
20260904082631 19 40 0.0 0.0 0.00 0.00 0.00 96 1014.7
20260904081631 18 40 0.0 0.0 0.00 0.00 0.00 96 1014.7
20260904080635 18 40 0.0 0.0 0.00 0.00 0.00 96 1015.1
20260904075631 18 40 0.0 3.2 0.00 0.00 0.00 96 1015.0
20260904074627 18 40 0.0 6.4 0.00 0.00 0.00 96 1014.9
20260904073631 18 40 0.0 3.2 0.00 0.00 0.00 96 1014.7
20260904072629 19 40 0.0 6.4 0.00 0.00 0.00 96 1014.7
20260904071629 18 43 0.0 6.4 0.00 0.00 0.00 96 1014.6
20260904070627 18 43 0.0 6.4 0.00 0.00 0.00 96 1014.8
20260904065627 18 265 0.0 0.0 0.00 0.00 0.00 95 1015.1
20260904064629 18 265 0.0 0.0 0.00 0.00 0.00 95 1015.6
20260904063627 18 265 0.0 0.0 0.00 0.00 0.00 95 1015.5
20260904062629 18 265 0.0 0.0 0.00 0.00 0.00 95 1015.7
20260904061628 18 265 0.0 0.0 0.00 0.00 0.00 95 1015.7
20260904060630 18 265 0.0 0.0 0.00 0.00 0.00 95 1015.6
20260904055628 18 265 0.0 0.0 0.00 0.00 0.00 95 1015.7
20260904054622 18 265 0.0 0.0 0.00 0.00 0.00 95 1015.7
20260904053623 18 265 0.0 0.0 0.00 0.00 0.00 95 1015.8
20260904052624 18 265 0.0 0.0 0.00 0.00 0.00 95 1015.7
20260904051621 18 265 0.0 0.0 0.00 0.00 0.00 95 1015.7
20260904050622 18 265 0.0 0.0 0.00 0.00 0.00 95 1015.9
20260904045625 18 265 0.0 0.0 0.00 0.00 0.00 95 1015.8
20260904044624 19 265 0.0 0.0 0.00 0.00 0.00 95 1015.8
20260904043623 19 265 0.0 0.0 0.00 0.00 0.00 95 1015.8
20260904042621 19 265 0.0 0.0 0.00 0.00 0.00 95 1015.9
20260904041620 19 265 0.0 0.0 0.00 0.00 0.00 95 1015.7
20260904040622 19 265 0.0 0.0 0.00 0.00 0.00 95 1015.5
20260904035618 19 265 0.0 0.0 0.00 0.00 2.51 95 1015.5
20260904034621 19 265 0.0 0.0 0.00 0.00 2.51 95 1015.1
20260904033620 19 265 0.0 0.0 0.00 0.00 2.51 95 1015.0
20260904032620 19 265 0.0 0.0 0.00 0.00 2.51 95 1014.9
20260904031619 19 265 0.0 0.0 0.00 0.00 2.51 95 1014.9
20260904030619 20 265 0.0 0.0 0.00 0.00 2.51 95 1015.0
20260904025628 20 265 0.0 0.0 0.00 0.00 2.51 95 1014.8
20260904024631 20 265 0.0 0.0 0.00 0.00 2.51 95 1014.8
20260904023815 20 265 0.0 0.0 0.00 2.51 2.51 95 1014.8
20260904022814 20 265 0.0 0.0 0.00 2.51 2.51 95 1014.8
20260904021819 20 265 0.0 0.0 0.00 2.51 2.51 95 1014.8
20260904020815 20 265 0.0 0.0 0.00 2.51 2.51 95 1014.8
20260904015815 20 265 0.0 0.0 0.00 2.51 2.51 95 1014.8
20260904014817 20 265 0.0 0.0 0.00 2.51 2.51 95 1014.9
20260904013817 20 265 0.0 0.0 0.00 2.51 2.51 95 1015.1
20260904012812 20 265 0.0 0.0 0.00 2.51 2.51 95 1015.2
20260904011814 20 265 0.0 0.0 0.00 2.51 2.51 95 1015.1
20260904010816 20 265 0.0 0.0 0.00 2.51 2.51 95 1015.0
20260904005813 20 265 0.0 0.0 0.00 2.51 2.51 95 1014.8
20260904004815 20 265 0.0 0.0 0.00 2.51 2.51 95 1014.7
20260904003815 20 265 0.0 0.0 0.00 2.51 2.51 95 1014.2
20260904002814 20 265 0.0 0.0 0.00 2.51 2.51 95 1014.1